This is the latest recevied weather packets stored in our database for station/object N4NVD-13. If no packets are shown the sender has not sent any weather packets the latest 10 day(s).
| Time | Temp. | Humidity | Pressure | Rain* | Wind** | Luminosity | Snow |
|---|---|---|---|---|---|---|---|
| 1777777892 | 13.33° C | 99% | 1020 hPa | 0 mm | - | 0 W/m² | - |
| 1777777587 | 13.33° C | 99% | 1019.8 hPa | 0 mm | - | 0 W/m² | - |
| 1777777284 | 13.89° C | 99% | 1019.8 hPa | 0 mm | - | 0 W/m² | - |
| 1777776981 | 13.89° C | 99% | 1019.8 hPa | 0 mm | - | 0 W/m² | - |
| 1777776679 | 13.89° C | 99% | 1019.6 hPa | 0 mm | - | 0 W/m² | - |
| 1777776375 | 13.89° C | 98% | 1019.7 hPa | 0 mm | - | 0 W/m² | - |
| 1777776072 | 13.89° C | 97% | 1019.6 hPa | 0 mm | - | 0 W/m² | - |
| 1777775769 | 14.44° C | 97% | 1019.4 hPa | 0 mm | - | 0 W/m² | - |
| 1777775467 | 14.44° C | 96% | 1019.6 hPa | 0 mm | - | 0 W/m² | - |
| 1777775162 | 14.44° C | 96% | 1019.6 hPa | 0 mm | - | 0 W/m² | - |
| 1777774857 | 14.44° C | 95% | 1019.5 hPa | 0 mm | - | 0 W/m² | - |
| 1777774555 | 14.44° C | 96% | 1019.5 hPa | 0 mm | - | 0 W/m² | - |
| 1777774251 | 15° C | 96% | 1019.7 hPa | 0 mm | - | 0 W/m² | - |
| 1777773948 | 15° C | 96% | 1019.4 hPa | 0 mm | - | 0 W/m² | - |
| 1777773645 | 15° C | 94% | 1019.3 hPa | 0 mm | - | 0 W/m² | - |
| 1777773342 | 15.56° C | 94% | 1019.2 hPa | 0 mm | - | 0 W/m² | - |
| 1777773039 | 15.56° C | 93% | 1019.1 hPa | 0 mm | - | 0 W/m² | - |
| 1777772735 | 15.56° C | 92% | 1018.9 hPa | 0 mm | - | 0 W/m² | - |
| 1777772433 | 16.11° C | 92% | 1019 hPa | 0 mm | - | 0 W/m² | - |
| 1777772130 | 16.67° C | 92% | 1019.1 hPa | 0 mm | - | 0 W/m² | - |
| 1777771828 | 16.67° C | 92% | 1019 hPa | 0 mm | - | 0 W/m² | - |
| 1777771525 | 16.67° C | 88% | 1019 hPa | 0 mm | - | 0 W/m² | - |
| 1777771221 | 17.22° C | 85% | 1019 hPa | 0 mm | - | 0 W/m² | - |
| 1777770918 | 17.78° C | 86% | 1019 hPa | 0 mm | - | 0 W/m² | - |
| 1777770615 | 18.33° C | 83% | 1018.9 hPa | 0 mm | - | 0 W/m² | - |
* Rain latest hour (hover to see other rain measurements)
** Current wind speed in m/s (hover to see current wind gust speed)